{"data":{"norad_id":54651,"epoch":"2026-05-25T05:27:05.516352Z","epoch_age_seconds":55594,"freshness":"FRESH","line1":"1 54651U 22166K   26145.22714718 -.00000266  00000+0 -67506-3 0  9990","line2":"2 54651  87.9249 248.5518 0002109 100.9607 259.1764 13.21826111168487","mean_motion":13.21826111,"eccentricity":0.0002109,"inclination_deg":87.9249,"raan_deg":248.5518,"arg_perigee_deg":100.9607,"mean_anomaly_deg":259.1764,"bstar":-0.00067506,"rev_number":16848,"period_min":108.94019932097,"perigee_km":1176.1594081758,"apogee_km":1179.3464825547,"semimajor_km":7555.8899453653,"source":"CELESTRAK","updated_at":"2026-05-25T13:38:22.628732Z"}}